Wind_Speed
15 18 18 18 18 17 18 18 17 16 15 14 14 14 14 14 14 14 14 13 11 10 10 9 9 10 10 11 12 12 12 12 12 12 14 14 15 14 13 12 11 11 10 10 10 8 7 7 7 7 7 7 7 8 9 10 11 13 14 15 14 14 13 14 13 12 12 12 12 11 12 13 14 16 18 18 18 16 15 15 16 18 19 17 17
19 19 19 19 18 18 18 18 17 17 15 15 14 14 14 14 14 15 14 13 11 9 9 9 9 10 10 11 11 11 11 11 10 10 11 12 12 12 12 11 10 9 9 9 9 8 8 7 7 7 6 6 6 7 8 9 11 12 13 14 14 14 13 14 13 12 12 11 11 10 10 11 12 14 17 18 17 17 15 14 16 18 19 18 18
22 20 20 20 19 18 19 18 17 17 15 15 15 15 14 14 14 14 14 13 11 10 9 9 9 9 9 10 9 10 10 9 9 9 10 10 10 10 10 10 9 8 8 7 7 7 7 6 6 6 5 5 4 5 8 9 10 11 12 14 14 14 14 14 14 13 11 10 10 9 9 9 10 13 15 17 17 16 14 14 16 18 19 17 18
22 21 21 21 19 19 19 18 18 17 15 15 14 14 14 13 14 14 14 13 11 10 9 8 8 8 8 8 8 9 9 8 8 9 9 8 8 8 8 8 8 7 7 6 6 6 5 4 5 5 5 5 3 4 7 9 9 10 11 13 14 14 15 15 14 13 12 10 8 8 9 9 7 10 12 15 16 14 14 15 17 18 18 17 17
22 21 22 22 20 19 19 19 18 17 15 15 14 14 13 13 14 14 14 13 12 10 9 8 7 7 7 6 6 7 9 8 8 8 7 7 7 8 7 7 7 6 6 5 5 5 3 2 5 6 6 5 4 3 5 8 9 9 10 13 14 15 16 16 16 16 15 13 10 8 10 9 6 7 10 13 14 13 15 16 17 17 17 17 17
22 22 22 22 21 20 20 19 18 17 16 15 14 14 13 14 14 14 13 13 12 11 9 8 6 6 6 5 6 8 8 8 7 7 6 7 7 7 7 6 5 5 5 4 4 4 2 2 5 6 6 6 5 5 5 7 8 9 11 13 15 16 18 18 18 18 19 18 13 10 9 12 7 5 7 11 13 14 15 16 16 16 17 17 17
22 23 22 22 22 21 20 19 18 16 16 15 14 14 13 14 14 14 13 12 12 11 10 8 7 6 4 4 6 8 8 7 6 6 6 6 5 5 5 5 4 4 4 4 3 3 3 3 6 5 5 4 5 5 5 6 7 9 11 13 15 17 19 19 20 20 20 17 13 11 5 14 11 6 4 8 12 14 15 16 16 16 17 16 16
22 23 23 22 22 21 21 19 18 17 16 16 15 14 14 15 14 14 14 13 12 11 10 9 7 6 4 4 6 8 8 7 7 7 7 6 4 4 4 4 4 4 4 4 3 3 4 4 5 4 3 2 3 4 5 6 7 9 11 12 16 18 19 19 21 20 19 18 14 9 5 14 13 8 1 5 10 15 16 16 16 16 16 16 15
23 23 23 22 23 21 20 19 18 18 17 16 15 15 15 15 14 15 14 13 12 11 11 9 8 6 5 5 6 7 7 7 7 7 6 5 5 4 4 4 4 4 3 2 2 3 4 4 4 3 3 2 3 4 5 6 8 9 10 12 15 18 19 19 19 18 19 19 11 8 5 10 10 6 1 4 10 14 16 15 14 15 14 14 14
23 23 23 22 23 21 20 19 19 19 18 17 15 15 15 15 15 14 14 13 12 12 11 10 9 7 7 7 7 7 6 6 7 7 6 5 5 4 4 4 4 4 4 2 2 3 3 4 4 4 4 3 1 2 5 7 8 9 10 12 14 17 17 17 17 17 18 13 6 7 6 11 9 6 7 7 11 13 14 14 13 14 14 14 13
21 21 23 22 22 21 20 19 19 19 18 17 16 16 16 15 15 14 14 13 12 12 11 10 10 9 8 8 7 6 6 6 7 6 5 4 4 4 3 3 4 4 4 3 2 2 2 2 2 2 3 3 3 3 4 6 7 7 10 12 13 17 16 16 18 18 16 8 6 7 10 13 11 9 11 7 9 13 12 12 12 13 14 14 13
20 19 23 23 22 21 20 20 19 19 18 17 16 15 15 15 14 14 14 13 12 12 12 11 10 10 9 8 8 7 7 7 7 5 4 4 3 3 2 3 3 4 4 3 3 2 1 1 2 1 3 3 3 3 3 6 7 7 10 11 13 16 16 16 17 18 12 3 6 10 11 11 11 10 9 4 9 13 12 12 12 13 13 13 13
19 19 23 23 22 22 20 20 19 19 18 17 16 15 15 15 14 14 13 13 13 12 12 11 10 10 9 8 8 7 7 8 7 5 3 3 3 2 2 2 3 4 4 4 4 4 3 2 2 0 1 2 2 1 3 5 7 8 9 11 14 16 16 17 18 18 8 1 3 9 10 10 11 10 8 2 10 12 11 12 12 13 13 13 13
19 18 22 23 22 22 21 20 20 19 18 17 16 15 15 15 14 14 13 12 12 12 11 10 10 9 8 7 7 7 7 7 6 5 3 2 2 2 2 2 2 3 3 3 4 5 5 4 4 3 1 1 1 1 1 3 5 7 8 11 15 17 17 16 18 17 6 5 4 9 9 9 11 10 6 4 11 10 10 11 11 12 13 12 12
18 19 22 23 22 22 21 21 21 20 18 17 16 15 14 14 14 14 13 12 12 12 11 10 9 8 7 6 6 6 6 6 5 4 3 2 2 2 2 2 1 2 2 3 3 4 4 4 5 5 3 3 2 2 2 1 2 5 7 11 15 17 16 14 17 15 5 7 7 10 7 9 11 7 1 6 9 9 9 10 11 11 12 12 12
16 19 21 22 22 22 21 21 20 20 19 17 16 15 14 14 14 13 13 12 11 11 10 10 9 8 7 6 6 6 5 5 4 4 3 3 2 2 2 3 1 1 2 2 2 3 3 3 4 5 5 4 3 4 4 4 1 3 5 9 15 16 14 13 16 13 5 4 5 10 7 9 9 2 3 6 8 8 8 9 10 10 11 11 11
16 18 21 21 21 21 20 20 19 19 18 17 16 15 15 13 13 13 13 12 11 10 10 10 9 8 7 6 6 6 5 4 4 4 3 3 3 3 3 3 2 1 2 2 2 1 1 2 3 5 6 4 3 5 6 4 3 3 5 9 14 16 14 13 13 10 6 5 6 11 7 8 5 1 3 6 7 7 7 8 9 9 10 10 11
18 16 19 21 20 20 19 19 18 17 17 16 16 15 14 13 13 12 13 12 11 10 10 9 8 7 6 6 6 6 6 5 5 4 4 3 3 3 3 3 2 2 2 1 1 0 0 1 2 3 5 5 3 5 6 4 4 4 7 10 15 17 15 14 12 8 6 8 8 10 8 8 6 3 2 5 7 7 6 7 7 8 8 9 10
18 17 18 19 19 19 18 19 18 17 16 16 15 14 13 12 12 12 12 12 11 10 10 10 8 8 7 6 6 6 6 5 5 5 4 3 3 4 4 3 2 2 2 1 0 0 1 1 1 1 3 4 4 3 4 4 4 5 8 12 17 18 16 14 11 4 5 9 8 9 9 10 9 6 2 5 6 7 6 6 7 7 7 8 9
17 18 18 17 17 18 18 18 17 17 17 15 15 14 13 12 12 12 12 11 10 10 10 9 9 9 8 6 5 5 6 6 6 5 4 3 3 4 4 3 3 3 2 2 1 1 2 2 2 1 1 2 3 2 2 4 4 5 8 13 17 17 16 15 11 5 5 8 8 9 8 10 11 8 4 5 6 6 6 5 6 6 7 7 8
15 17 17 17 16 16 17 17 17 16 16 15 14 15 15 13 13 13 12 12 11 10 10 10 9 9 8 7 6 6 6 5 6 5 5 4 3 4 3 2 3 3 4 4 3 3 3 4 3 3 1 2 3 2 3 4 5 7 8 11 14 15 14 12 11 7 3 7 8 9 8 9 10 8 5 5 5 6 5 5 5 6 6 7 7
13 14 14 16 16 16 16 16 15 15 14 13 13 13 14 14 14 13 13 12 12 11 11 11 10 10 9 9 8 7 6 5 6 5 5 5 4 3 2 2 3 4 5 5 5 4 4 4 3 3 2 2 3 3 3 3 4 6 8 10 11 12 11 8 10 7 5 9 8 8 8 9 9 8 6 5 5 6 5 5 5 6 6 6 7
14 14 13 13 15 16 15 15 14 13 13 13 13 12 12 14 14 14 14 13 13 13 13 13 12 12 11 11 9 7 7 6 7 6 6 6 4 3 2 1 2 4 5 5 6 5 4 4 4 4 3 3 3 6 6 3 1 2 6 9 9 9 9 9 11 6 8 9 8 9 9 10 9 8 7 6 7 7 6 6 5 6 6 6 6
16 16 15 13 14 15 15 14 13 12 12 12 12 11 12 13 12 13 14 14 15 14 15 14 13 13 13 12 10 8 8 8 7 6 6 5 4 3 2 1 3 4 5 5 6 5 4 4 5 5 4 3 4 9 7 4 3 1 3 6 7 6 6 10 11 5 10 9 9 10 10 10 8 7 8 6 7 7 7 7 7 7 6 6 6
18 18 17 15 15 15 14 15 13 12 11 10 9 9 11 11 11 13 14 14 15 14 15 15 13 14 14 12 11 9 9 9 7 6 6 5 3 3 3 2 3 3 5 6 4 5 5 4 3 4 5 6 8 9 4 1 1 1 2 3 4 5 6 11 11 5 10 8 9 10 9 8 7 7 6 6 7 7 8 8 8 8 7 7 7
20 19 18 16 15 14 11 12 12 12 10 10 10 9 10 11 12 12 13 13 14 14 13 15 15 13 13 12 12 10 9 9 7 7 7 6 4 3 3 3 4 4 4 4 2 2 4 5 4 3 4 7 9 7 3 6 7 3 3 3 3 4 3 8 7 6 9 8 10 10 8 6 6 6 5 5 6 6 8 8 8 8 8 8 7
19 18 18 14 14 12 8 10 10 11 11 10 10 9 10 12 12 12 12 12 14 14 14 15 15 13 11 12 12 12 11 9 8 9 8 8 7 4 3 4 5 4 4 4 3 2 3 4 2 2 4 6 6 7 8 11 12 10 8 6 5 3 3 5 6 8 9 8 8 8 7 6 5 5 5 5 6 7 8 8 9 8 8 8 7
17 16 16 16 15 9 7 10 9 9 9 8 10 9 10 11 11 12 12 12 13 14 14 15 15 13 12 12 12 11 12 9 8 9 9 8 7 5 4 5 6 5 4 4 5 3 1 3 2 3 5 6 7 8 10 11 10 13 13 8 6 6 7 8 8 8 9 8 6 5 5 5 5 5 5 5 6 7 8 8 9 9 9 8 8
17 17 14 16 15 10 10 10 7 8 8 7 8 7 9 11 12 12 12 11 13 13 13 14 13 12 12 13 11 10 11 10 8 9 9 8 6 6 5 6 8 6 5 5 6 4 3 5 5 3 3 4 8 7 10 10 8 13 14 11 8 6 6 6 9 9 9 8 5 4 5 4 4 5 5 6 6 6 7 7 8 8 9 9 9
17 16 13 14 15 14 14 10 7 8 7 7 7 6 7 10 10 10 10 10 12 12 12 13 13 13 13 14 11 10 12 12 10 10 10 8 6 6 6 7 9 7 5 5 7 7 6 6 5 3 3 2 5 6 7 9 9 12 12 10 10 8 5 6 7 6 6 7 6 5 6 5 4 4 5 6 6 6 6 7 7 7 8 8 9
17 16 14 14 15 14 14 12 12 11 7 7 6 5 8 8 8 7 8 9 10 11 11 13 14 14 15 15 12 12 13 11 10 9 8 7 6 6 7 8 8 6 6 5 7 8 6 4 1 3 5 2 4 6 6 5 7 9 9 7 7 8 8 5 6 4 4 7 7 6 6 6 6 5 5 5 6 5 6 6 6 6 6 7 7
17 16 15 13 14 14 15 14 16 15 11 10 6 2 5 5 5 5 6 8 8 9 10 11 12 13 14 15 14 13 13 11 10 11 9 9 10 8 8 9 7 6 7 7 8 7 6 6 3 5 7 5 7 6 5 6 5 4 7 7 6 7 7 6 6 5 5 8 9 7 6 7 6 7 7 6 5 5 5 5 5 6 6 6 6
16 15 16 13 15 17 16 12 13 16 15 13 9 5 6 3 2 2 5 9 9 7 9 9 10 11 12 13 13 13 12 11 12 15 12 11 12 10 9 9 7 6 8 10 10 9 8 8 7 10 8 5 10 9 6 7 6 5 7 8 8 7 7 6 7 6 7 9 10 9 8 8 7 8 8 7 6 5 5 5 5 5 5 6 6
15 15 17 15 16 17 14 10 13 16 13 12 11 9 10 6 4 4 5 6 6 7 9 10 10 12 12 12 13 12 11 10 11 13 12 12 13 10 8 8 7 6 7 9 12 11 10 8 7 10 8 5 10 12 9 8 8 10 10 10 11 11 11 9 7 7 9 11 9 9 10 9 9 9 8 8 8 7 6 6 5 5 5 5 5
16 17 18 16 17 15 12 13 13 12 9 11 11 9 11 10 8 9 5 2 3 4 8 10 10 12 13 13 14 13 10 9 9 11 12 12 11 10 8 8 7 6 6 7 11 12 10 8 6 7 7 7 8 10 11 11 10 12 11 10 11 13 14 13 10 9 7 10 12 10 9 10 11 10 9 8 8 8 7 7 7 6 6 6 6
17 20 20 18 18 15 14 15 13 11 10 9 8 7 9 10 9 7 2 1 2 3 5 8 8 10 10 12 14 13 12 10 9 10 11 10 10 9 7 7 7 6 6 6 9 11 9 8 9 9 8 9 9 9 9 10 11 11 9 8 9 9 12 13 14 14 9 4 9 11 10 10 12 12 11 9 9 8 8 8 8 7 7 6 6
19 21 22 20 20 18 15 15 14 13 12 10 9 8 8 7 6 5 5 5 4 6 5 3 3 4 4 6 9 9 10 11 10 10 10 10 10 9 7 8 8 7 7 7 9 11 10 9 10 10 8 8 8 8 6 6 7 8 6 5 6 6 7 10 12 15 14 9 7 9 11 11 12 13 13 12 11 10 9 9 8 9 8 8 7
20 20 21 21 20 18 16 15 15 14 12 11 10 9 9 8 7 8 7 6 6 7 3 2 3 5 5 4 5 6 6 8 8 8 7 8 9 9 9 9 8 7 7 8 9 11 11 10 10 10 9 9 8 8 7 5 4 4 3 3 5 6 7 8 8 9 12 12 11 10 11 11 12 13 14 14 14 12 10 10 10 10 11 9 9
20 20 19 20 19 17 17 15 15 14 12 11 10 10 10 9 8 9 9 7 6 8 4 2 3 4 4 3 2 3 4 4 4 4 4 5 6 7 8 8 7 7 7 8 9 11 11 9 9 11 12 11 10 9 9 8 5 4 5 6 7 8 9 10 9 8 9 11 13 12 12 12 12 13 14 14 15 14 12 12 12 12 12 11 9
19 20 19 19 19 18 16 15 14 14 12 11 11 11 10 10 9 8 8 7 6 8 7 6 5 4 5 5 3 2 3 3 2 2 3 4 4 4 5 5 5 5 6 7 8 10 10 8 10 13 13 13 12 10 9 9 8 8 8 9 10 10 11 11 11 10 9 10 13 14 14 15 12 12 14 14 14 15 15 14 14 13 13 12 10
19 19 19 18 19 18 16 15 15 13 13 12 12 9 7 9 8 6 6 6 5 6 7 8 7 3 2 4 3 3 2 3 4 2 2 1 2 3 4 4 3 3 3 4 6 9 10 9 10 12 13 13 13 12 11 10 12 12 11 11 11 10 11 12 12 12 12 10 11 13 16 17 14 12 14 15 14 15 16 15 15 14 13 12 10
20 20 20 19 19 18 17 15 15 13 13 13 12 10 7 7 8 7 6 6 7 5 3 3 5 2 1 2 1 3 4 2 3 4 3 2 0 2 3 3 2 2 1 2 4 7 9 9 9 10 12 13 13 14 13 12 13 13 11 9 9 9 10 11 11 12 13 13 11 10 13 16 17 16 17 17 16 15 15 16 16 15 14 13 12
21 22 21 21 20 19 18 15 15 14 13 13 14 13 10 9 9 9 8 9 10 6 0 3 4 4 3 2 2 4 5 5 5 3 2 3 2 1 1 2 1 0 1 1 2 4 5 7 8 9 10 13 14 15 14 13 12 11 9 8 8 8 7 8 8 8 9 12 12 9 10 12 15 17 17 17 16 15 17 17 16 15 14 14 15
24 26 25 23 22 21 20 17 15 14 13 13 14 13 13 12 12 12 9 7 8 5 2 6 7 6 5 5 4 4 5 6 7 6 1 2 5 3 1 1 1 1 2 2 3 2 1 3 6 8 8 11 13 13 13 13 13 12 9 9 9 7 6 5 2 2 5 7 7 5 7 9 9 10 11 14 15 16 17 18 18 17 17 17 16
29 29 29 27 25 23 21 18 16 15 13 12 12 12 11 11 10 12 9 6 8 6 6 8 7 7 6 6 6 5 5 7 8 7 4 3 6 6 4 3 2 5 6 6 7 7 6 5 2 4 7 8 10 12 12 12 13 13 11 10 8 7 6 4 1 1 4 4 3 2 4 6 6 7 8 10 11 13 15 16 17 17 18 18 19
31 31 31 30 27 24 22 19 17 15 14 12 11 12 11 9 9 11 11 10 12 9 8 8 6 5 5 6 6 6 6 6 6 6 6 6 6 9 8 5 3 7 8 6 7 9 9 10 9 5 2 3 6 9 9 9 10 12 14 12 9 7 6 5 4 3 2 3 4 6 8 9 8 7 8 9 10 10 11 13 16 17 17 17 17
33 33 32 31 27 25 22 20 19 16 15 13 12 12 11 10 11 13 13 13 13 10 8 8 6 5 5 6 6 7 7 7 7 7 8 8 7 9 12 9 6 7 7 6 9 8 6 7 8 7 5 6 6 4 4 4 6 8 10 11 10 9 8 8 8 7 5 4 4 6 9 10 9 9 9 10 10 10 10 10 14 16 14 13 14
33 34 33 31 27 26 23 21 20 18 17 15 14 13 12 13 14 15 14 13 12 11 9 8 7 6 6 7 6 7 8 7 8 8 6 7 8 10 12 12 10 8 5 6 7 6 4 4 5 6 5 6 8 8 7 6 3 2 2 3 3 5 7 7 9 10 9 9 9 8 8 9 11 11 12 12 12 10 8 7 10 11 10 11 12
34 34 33 31 28 27 26 23 22 21 18 17 16 15 13 14 16 17 15 13 12 11 9 8 7 6 6 7 6 6 6 6 7 7 7 7 8 10 12 13 12 9 5 4 4 4 4 5 6 6 6 7 8 9 10 8 7 7 6 5 4 2 1 3 4 5 6 7 9 8 7 8 9 10 12 13 13 12 9 7 7 8 8 10 12
33 32 32 30 28 29 28 26 25 23 21 19 18 17 16 16 17 19 17 14 13 11 10 9 7 6 6 7 5 5 6 6 7 7 8 8 9 9 10 11 11 10 9 10 11 10 10 11 10 8 7 8 7 7 8 6 6 7 6 5 5 4 5 5 4 3 3 4 5 5 6 7 9 11 12 12 13 13 11 10 10 10 9 11 11
28 27 28 29 30 30 30 29 27 25 23 21 20 18 17 17 18 20 18 15 14 13 11 9 9 8 7 6 5 4 5 6 7 8 8 8 8 9 10 10 11 11 12 13 13 12 13 13 12 11 10 9 8 6 5 4 5 7 7 7 7 5 4 3 2 2 1 2 4 5 6 6 8 9 9 11 13 14 12 10 10 11 11 10 12
Wind_Direction
160 159 151 150 154 149 141 133 129 125 121 118 116 119 122 129 138 149 154 157 156 153 143 136 132 122 121 120 121 121 118 112 109 113 112 112 112 113 112 110 107 100 96 90 84 79 79 85 84 82 81 83 88 99 120 135 144 148 145 138 135 134 129 124 122 119 109 100 98 93 86 82 81 79 78 76 74 75 72 67 64 68 69 69 69
155 157 149 149 151 146 139 132 130 125 122 118 118 119 120 128 137 146 154 160 162 161 147 141 137 127 122 120 121 123 122 113 108 114 113 113 114 116 117 113 107 98 93 87 83 78 77 83 77 73 75 77 88 102 120 135 143 147 143 138 138 135 129 123 116 109 100 93 89 82 74 76 78 78 81 80 79 79 76 71 68 68 68 69 70
150 153 148 147 148 143 137 133 130 126 123 119 117 118 119 127 136 146 155 162 167 167 154 145 140 131 125 120 119 126 128 118 115 117 115 113 113 117 119 117 111 102 95 90 86 78 76 77 72 69 68 74 89 110 125 133 142 149 145 141 141 135 126 117 111 104 96 90 87 81 63 52 64 74 81 84 81 80 78 73 70 69 68 68 71
149 149 145 145 145 140 136 135 131 127 122 119 117 116 119 126 137 147 157 165 172 171 161 152 144 137 131 123 118 129 133 126 125 124 123 120 120 120 119 119 115 110 103 94 86 80 78 66 62 63 69 83 93 109 122 129 141 146 147 147 140 128 119 113 105 95 86 81 82 76 47 27 47 72 80 85 84 84 82 75 70 69 69 69 72
149 146 144 145 143 139 137 136 131 126 122 121 118 116 119 125 136 147 158 167 174 174 167 161 151 142 136 129 123 134 136 129 129 128 131 134 133 127 127 127 122 118 112 104 95 87 85 34 54 69 78 90 97 104 118 124 138 143 148 148 132 121 117 111 98 88 77 68 62 45 13 359 24 66 81 87 88 91 85 76 72 71 70 70 72
147 144 145 145 142 140 139 137 131 126 125 123 120 118 119 123 132 143 155 164 171 173 169 168 160 152 143 136 133 139 138 130 130 130 137 145 142 137 135 134 133 132 126 130 128 112 105 43 66 78 80 92 100 107 132 131 137 142 147 141 127 122 118 109 98 87 76 70 60 49 355 329 345 32 79 94 93 90 85 78 75 73 71 71 72
144 143 145 145 142 142 141 137 131 128 128 126 122 118 118 119 123 134 147 157 165 167 166 172 168 164 155 141 137 138 138 135 134 133 138 143 144 141 138 137 141 145 150 161 161 128 112 81 82 86 81 95 106 116 147 143 146 148 146 139 129 126 119 110 101 90 83 79 69 74 317 305 322 344 56 92 92 85 80 78 75 74 70 70 73
142 144 145 147 143 143 142 137 133 132 131 128 124 119 119 118 118 126 136 147 154 160 163 170 170 171 166 146 138 138 140 137 135 134 134 135 138 137 134 134 135 147 158 174 172 113 103 100 97 99 95 105 122 140 163 150 161 159 149 143 137 131 120 112 103 93 89 81 76 101 262 297 307 310 52 94 83 82 79 76 75 74 71 69 73
143 146 147 149 144 144 143 140 138 136 135 131 127 122 122 122 120 123 128 138 145 152 157 163 165 168 161 146 143 143 141 137 133 132 131 133 137 134 128 123 122 127 127 144 141 102 111 116 116 139 155 160 141 158 166 156 174 167 154 151 144 135 123 116 105 96 89 81 90 140 247 287 285 294 46 70 66 75 77 77 77 77 76 72 73
144 149 150 150 146 146 145 143 141 139 137 133 130 125 126 126 126 127 128 132 138 145 150 155 157 156 152 149 148 145 142 139 137 134 134 136 135 128 121 114 107 104 99 89 83 100 130 142 150 173 194 212 226 192 165 162 181 170 161 158 149 141 128 119 107 96 91 91 144 180 242 268 272 306 347 18 62 74 76 77 80 81 80 77 75
143 152 153 151 149 148 148 146 143 141 139 136 133 128 128 129 130 131 130 131 135 139 143 147 148 149 148 148 147 145 146 143 143 140 138 139 132 121 107 98 95 90 86 69 62 91 144 188 207 208 234 251 272 265 183 173 182 174 168 161 150 144 132 120 108 96 94 108 200 213 232 247 264 293 327 2 77 81 81 81 83 85 82 78 76
146 153 155 155 152 150 151 147 145 144 142 139 135 131 129 131 133 132 131 133 134 137 140 142 142 142 142 144 146 145 150 151 153 154 151 150 141 128 102 85 80 77 81 65 53 57 88 219 282 267 258 268 268 277 221 191 185 184 175 162 149 144 131 120 107 94 96 132 219 226 231 235 253 283 321 11 89 85 87 85 84 87 86 82 77
151 154 155 156 153 153 153 149 148 147 144 142 139 135 132 132 134 133 133 136 137 139 138 139 137 137 140 143 147 148 152 157 162 167 167 171 162 152 121 98 79 75 80 72 64 61 67 71 36 37 246 267 260 244 237 216 196 192 179 161 149 145 132 123 111 97 104 179 228 233 241 250 258 281 309 41 88 86 88 84 86 86 88 86 78
154 152 155 159 155 155 154 152 151 149 148 146 144 139 136 135 135 136 137 139 140 140 139 139 139 139 144 145 150 154 158 164 171 174 177 191 195 184 153 119 85 78 75 72 69 71 78 74 57 47 74 141 153 157 238 245 213 201 179 162 155 149 136 128 116 101 119 163 194 242 247 268 274 283 294 96 92 87 86 83 87 87 89 88 81
153 151 157 161 157 158 157 155 154 152 152 149 148 144 141 140 139 140 141 143 143 142 142 141 143 145 147 146 149 157 166 175 181 185 186 190 201 193 166 146 91 77 74 71 76 82 82 70 53 46 73 104 94 115 125 99 217 205 177 166 162 153 137 130 118 111 155 163 199 246 247 277 290 285 269 107 99 90 89 88 89 89 91 91 86
150 150 155 160 158 159 158 157 157 156 157 155 154 150 148 146 144 146 146 149 149 147 146 145 147 149 150 150 147 153 166 181 185 188 182 170 175 192 180 164 144 107 101 81 92 102 76 63 57 49 65 87 96 116 113 96 124 184 173 168 164 154 138 131 120 123 161 132 221 253 251 277 296 279 136 106 105 98 94 94 94 95 94 95 93
145 148 153 158 158 159 160 160 160 160 161 161 160 157 156 153 151 153 154 156 158 157 154 151 152 150 152 154 149 150 160 176 177 175 170 162 165 182 192 178 169 151 137 107 91 121 68 53 63 54 58 74 109 133 125 104 104 134 153 161 159 152 135 126 117 118 135 132 226 257 260 273 308 27 128 115 114 109 100 99 100 101 99 99 98
144 148 151 154 158 159 162 160 160 162 165 167 166 167 164 162 164 165 166 165 166 167 163 159 158 157 159 158 158 155 159 171 171 169 163 161 167 177 196 192 181 175 167 161 60 101 138 51 76 57 49 60 89 139 142 123 106 116 137 150 151 146 131 121 112 109 147 171 219 253 261 270 294 327 144 133 127 123 114 108 108 109 105 101 101
144 144 147 149 156 159 161 161 162 164 167 172 172 174 174 176 180 178 178 176 175 176 174 170 167 168 171 172 172 166 165 169 175 178 166 165 175 177 189 194 203 217 221 230 310 283 246 202 138 42 33 57 63 109 153 151 120 116 131 144 149 143 130 117 103 98 195 195 218 248 258 266 274 288 236 152 141 140 132 122 119 118 114 107 105
141 142 145 148 154 156 159 161 165 168 170 175 177 181 182 185 190 188 188 188 187 187 187 185 181 181 185 190 184 175 178 178 182 184 176 182 186 180 184 197 224 239 244 253 258 266 255 238 227 278 348 74 78 89 152 168 144 128 131 145 152 147 135 121 110 124 210 210 226 249 255 263 268 278 241 173 158 155 147 139 132 128 124 116 111
137 139 144 147 150 153 156 161 165 169 173 176 180 187 188 191 195 194 196 197 198 196 199 197 195 199 199 200 194 189 192 188 197 197 189 199 199 188 192 226 245 249 250 258 261 258 254 248 245 255 252 93 103 125 164 176 160 138 136 150 155 157 152 132 124 135 232 246 251 257 256 267 266 267 242 192 174 170 163 154 143 140 135 123 118
144 140 143 145 147 151 155 161 164 167 174 178 183 191 192 194 198 199 204 206 205 202 204 203 207 212 210 210 206 207 211 204 211 211 201 208 213 204 215 255 252 250 250 259 265 258 251 241 235 250 230 141 106 128 165 182 177 153 143 147 153 167 168 142 134 147 255 262 272 275 272 280 266 258 243 202 186 184 178 172 158 150 143 130 124
156 149 147 145 147 152 156 161 161 166 176 182 186 191 195 199 200 202 208 210 210 208 207 210 216 217 217 218 214 218 227 221 219 213 200 200 201 214 237 256 252 246 248 257 260 259 258 249 243 247 216 178 118 132 132 96 111 169 151 147 151 167 168 142 132 161 247 260 278 290 294 291 272 257 243 205 190 194 187 184 172 157 150 140 134
156 154 148 143 146 149 156 163 164 170 179 186 190 191 195 200 201 205 212 215 215 214 213 218 223 224 223 222 217 218 224 221 214 206 199 193 193 225 253 256 246 237 245 255 259 262 257 255 250 235 197 166 142 143 127 78 48 40 153 149 143 161 179 150 131 186 241 251 264 279 293 286 279 269 251 214 193 198 194 191 185 170 164 158 151
147 150 145 141 144 145 150 160 165 169 176 187 192 193 191 192 198 206 211 216 217 216 220 226 226 225 227 224 217 217 221 219 209 200 199 192 195 235 255 252 250 236 236 245 254 251 235 226 226 218 189 156 143 135 112 301 241 46 161 143 139 177 186 150 133 213 236 242 254 271 286 279 288 286 264 231 205 204 201 198 195 184 179 174 165
143 145 141 140 145 144 144 152 158 162 167 181 190 195 197 195 197 204 210 217 218 216 221 227 226 221 226 224 215 217 218 215 211 208 201 194 197 221 240 241 246 238 227 232 231 216 210 203 193 197 177 157 149 142 169 210 189 184 195 196 206 202 163 139 150 219 224 235 253 267 279 277 290 291 277 249 223 214 209 205 203 198 194 187 177
144 142 140 141 143 142 148 150 150 164 168 178 192 199 207 207 205 203 208 217 213 213 216 220 224 218 214 215 213 212 204 201 208 209 203 205 215 218 226 231 225 208 198 223 238 226 207 202 194 197 177 165 177 183 192 192 186 187 180 190 216 195 163 160 183 222 228 238 252 262 270 274 284 288 284 259 236 224 218 215 211 208 207 202 194
145 145 143 144 145 142 158 152 141 162 168 177 192 195 209 212 210 206 208 218 214 213 216 215 219 215 205 203 205 201 192 192 199 205 200 200 212 206 209 221 210 192 182 202 221 226 238 243 271 221 187 181 201 201 190 193 201 193 175 176 216 203 189 186 184 213 238 242 246 260 266 267 276 283 284 270 251 234 222 218 217 214 214 213 210
145 146 144 146 148 147 154 148 135 154 157 167 185 190 211 207 196 199 205 218 220 217 218 216 215 209 200 195 195 195 192 188 187 202 198 180 189 200 209 207 198 203 196 186 192 196 219 244 263 226 195 204 208 206 187 190 212 198 178 172 198 214 209 207 192 200 233 244 243 259 259 259 271 278 278 279 269 252 230 215 217 216 214 214 214
144 144 141 143 142 144 148 141 134 155 156 153 170 182 194 197 193 204 208 208 217 223 221 215 211 205 202 199 198 203 201 191 185 196 191 174 187 216 226 200 196 216 218 197 182 183 201 228 255 214 207 242 205 222 201 187 206 198 187 187 190 190 200 240 231 210 230 241 250 259 252 254 268 274 274 277 275 269 252 230 221 216 211 210 211
142 138 137 143 139 138 138 136 141 144 151 155 166 176 165 182 200 212 218 211 213 219 218 213 209 204 201 201 202 208 211 201 191 195 192 191 202 221 231 213 209 223 223 216 188 184 197 196 260 227 222 220 186 238 243 206 215 197 196 218 207 190 188 227 256 247 239 242 256 266 262 260 262 270 275 275 274 276 270 254 239 229 220 211 208
138 137 141 144 137 135 136 148 155 139 132 145 153 165 152 178 203 203 219 215 211 217 224 220 213 210 206 206 208 213 214 206 200 203 201 202 204 209 214 214 223 227 217 214 203 197 188 161 163 226 222 191 177 214 236 220 239 202 193 211 216 215 204 213 236 228 231 250 257 261 272 274 265 269 275 275 274 275 277 273 259 249 240 227 219
137 146 146 137 136 145 151 159 159 145 137 137 135 136 143 162 213 225 236 218 208 222 234 222 212 212 209 207 208 211 212 208 206 203 201 201 206 209 204 211 227 234 221 211 209 204 183 169 182 208 207 174 178 187 193 206 221 212 206 204 202 222 222 219 238 226 218 241 260 268 274 277 279 280 276 273 273 271 270 273 270 263 258 252 243
145 154 145 142 153 159 162 149 144 157 159 144 141 145 141 133 143 187 238 233 199 198 209 212 217 211 203 205 207 209 211 213 212 205 205 207 210 215 212 219 231 236 232 219 214 205 186 176 186 207 200 181 191 184 178 194 204 206 213 209 201 210 206 199 220 226 226 235 244 268 277 274 279 282 276 271 269 270 270 269 272 270 269 271 269
155 154 147 154 162 157 147 134 136 154 156 147 152 151 141 136 149 178 217 233 149 161 180 188 203 200 196 205 207 208 208 205 209 208 211 211 213 221 222 226 229 233 241 230 218 205 189 175 173 197 191 188 197 181 184 200 204 207 214 216 212 214 211 205 201 194 217 249 236 239 269 276 276 273 270 272 269 264 265 273 277 277 275 277 279
162 154 151 153 148 141 132 128 128 129 125 132 139 131 138 151 166 180 209 150 122 63 106 147 176 186 190 194 189 193 200 197 202 212 214 215 218 224 227 233 231 237 244 231 213 196 184 180 173 178 188 197 200 189 195 205 208 213 216 221 222 224 223 220 214 199 186 238 244 231 242 264 274 277 273 268 266 262 264 274 278 278 280 280 283
163 155 152 147 140 137 133 128 125 120 119 123 122 115 116 122 129 123 89 85 79 57 63 90 128 138 157 174 168 174 195 203 210 219 220 217 218 217 223 235 232 232 238 227 206 188 185 197 187 181 193 205 207 205 204 198 206 215 213 220 233 242 234 226 227 220 205 200 230 237 237 247 259 270 275 270 262 260 264 271 275 278 281 279 281
163 158 154 147 144 141 138 134 128 124 121 121 123 121 115 110 112 114 107 95 86 92 91 0 56 94 103 123 141 149 178 202 213 223 233 225 217 218 223 231 232 224 228 223 205 194 196 198 191 189 196 204 215 223 229 234 227 225 236 251 260 268 261 248 238 231 225 217 215 225 236 246 250 253 263 269 268 265 263 265 271 276 278 277 277
165 162 159 154 154 149 144 141 134 129 126 125 122 114 110 108 101 94 95 96 98 111 112 21 35 74 85 84 120 141 150 175 189 206 232 232 220 227 233 237 241 225 224 227 211 206 208 196 196 207 205 204 214 223 235 251 252 242 260 273 276 277 272 264 250 238 241 230 217 216 221 233 249 248 247 256 264 267 265 265 270 271 273 275 274
170 166 164 163 165 158 153 148 140 136 132 124 107 97 95 94 95 96 110 117 111 119 120 108 102 92 87 86 97 136 152 160 161 195 217 216 211 234 251 255 259 240 231 235 221 218 221 214 219 224 218 212 216 221 226 242 253 258 269 274 272 272 271 267 256 242 238 230 222 222 215 216 230 236 236 244 252 260 263 265 267 268 271 271 267
175 175 172 173 176 168 163 156 147 144 135 120 102 101 104 104 111 110 105 93 80 116 133 144 165 177 123 127 140 150 151 150 154 178 202 217 238 245 256 269 275 262 253 241 228 229 230 231 232 230 227 224 225 230 230 238 253 261 266 271 270 267 270 268 260 248 239 230 225 229 227 222 221 219 225 232 234 246 258 264 266 266 268 267 261
180 183 180 181 185 177 172 163 153 150 137 127 125 132 130 113 114 108 100 96 99 121 136 148 172 183 143 152 141 105 83 88 155 169 136 86 339 255 263 276 265 231 236 236 235 241 236 235 237 232 233 232 231 239 242 245 253 257 259 264 267 264 265 268 268 261 244 231 226 235 241 237 233 229 226 227 224 227 242 255 265 267 269 273 272
185 189 187 186 189 182 179 170 160 157 145 142 145 146 147 135 128 133 145 150 150 162 152 79 99 88 87 82 85 106 94 65 55 58 95 128 130 80 322 283 279 222 152 171 214 236 238 234 235 233 233 229 230 241 247 249 253 250 246 249 257 262 260 261 267 265 246 235 231 241 254 249 243 239 237 241 237 226 227 233 243 252 255 262 271
189 191 190 189 189 185 183 174 167 164 153 154 152 150 156 155 156 162 168 169 170 184 102 94 91 79 79 76 86 110 122 116 97 91 125 166 133 96 347 208 160 76 69 59 71 85 145 210 219 219 219 220 222 231 236 238 241 235 226 230 239 249 251 250 266 244 222 219 220 236 258 254 255 257 258 265 256 240 233 229 229 233 235 236 246
196 197 194 191 188 186 185 176 174 170 162 163 155 150 155 158 164 165 166 153 143 137 98 91 87 85 86 81 85 86 101 125 135 142 129 108 131 111 41 18 96 103 83 58 58 53 50 69 115 192 205 212 210 214 218 223 229 222 215 218 223 232 244 249 282 239 204 201 213 250 290 278 280 289 290 290 274 255 251 245 238 236 237 234 231
205 205 198 193 187 186 187 180 180 175 170 172 160 152 151 155 157 152 152 135 123 121 105 99 101 98 91 85 86 83 88 110 132 137 108 92 119 123 101 64 60 105 104 99 98 79 69 74 71 80 154 175 183 204 213 217 222 212 209 218 223 228 245 262 278 277 242 242 244 247 267 283 290 289 294 299 291 280 279 269 256 249 247 245 241
209 209 201 194 188 188 189 185 187 183 177 176 167 158 149 146 146 140 136 128 129 140 137 131 131 119 102 97 94 87 84 91 98 103 115 125 133 135 128 104 69 87 111 139 138 121 111 108 92 85 90 87 101 156 185 194 215 212 212 223 231 237 250 265 275 283 279 269 261 249 258 273 276 274 284 294 291 289 298 289 270 262 254 253 259
213 212 204 196 191 192 193 191 193 189 184 180 172 166 153 142 140 135 133 138 151 157 151 145 137 128 114 103 94 88 85 86 92 92 105 131 137 134 130 116 99 96 119 159 166 171 187 180 162 143 127 103 96 100 91 86 111 130 169 203 229 246 255 270 274 276 278 279 279 272 267 274 275 276 280 286 287 283 289 295 281 273 262 258 263
219 213 204 197 195 199 199 195 196 194 189 183 176 172 158 143 139 139 144 159 170 163 153 150 143 135 122 115 109 98 94 91 97 96 91 99 112 125 134 131 122 116 115 119 123 131 113 111 145 156 152 142 126 115 101 91 92 87 83 79 56 40 343 340 318 291 289 296 296 292 296 301 299 296 289 286 287 281 271 274 283 286 281 276 268
217 209 203 199 198 203 202 197 197 197 192 186 180 175 164 150 142 143 157 174 174 163 161 159 154 150 136 132 132 112 101 92 87 87 88 94 99 109 126 130 127 122 108 96 93 95 93 91 100 109 119 131 137 139 135 141 142 124 118 114 97 87 72 54 50 38 10 357 342 324 318 320 316 313 311 304 295 286 277 274 287 300 299 298 289
210 205 202 200 199 203 203 198 199 200 195 188 185 178 168 158 146 149 169 182 171 165 171 168 164 165 150 139 136 116 105 96 91 89 86 92 98 102 111 117 119 116 106 101 99 97 97 95 94 95 98 106 115 125 135 150 161 161 165 158 151 152 143 142 159 171 240 292 291 283 292 308 309 308 312 308 298 295 294 285 291 308 307 309 310
Height
1488 1489 1491 1492 1494 1495 1497 1498 1499 1500 1502 1503 1505 1506 1507 1509 1510 1511 1512 1513 1514 1516 1517 1518 1519 1519 1520 1521 1522 1523 1524 1524 1525 1526 1526 1527 1527 1528 1528 1529 1529 1530 1531 1531 1532 1532 1533 1533 1534 1534 1535 1535 1535 1535 1535 1536 1536 1537 1538 1538 1539 1540 1541 1542 1543 1543 1543 1544 1544 1544 1543 1543 1543 1543 1543 1544 1544 1544 1544 1543 1543 1542 1541 1541 1541
1486 1490 1490 1492 1494 1495 1497 1498 1500 1500 1502 1503 1505 1506 1508 1509 1510 1511 1513 1514 1515 1516 1517 1518 1519 1520 1521 1522 1523 1524 1525 1525 1526 1527 1527 1528 1528 1529 1529 1530 1530 1531 1532 1532 1533 1533 1534 1533 1534 1535 1535 1536 1536 1536 1536 1537 1537 1538 1539 1539 1540 1541 1542 1543 1544 1544 1545 1545 1545 1545 1545 1544 1544 1544 1544 1545 1545 1545 1545 1545 1544 1543 1542 1542 1542
1486 1489 1490 1492 1494 1495 1497 1498 1500 1501 1503 1504 1505 1507 1508 1509 1510 1512 1513 1514 1515 1517 1518 1519 1520 1521 1522 1523 1524 1524 1525 1526 1527 1528 1528 1528 1529 1530 1530 1531 1531 1532 1533 1533 1534 1534 1535 1534 1534 1535 1535 1536 1537 1537 1537 1538 1538 1539 1539 1540 1541 1542 1544 1544 1545 1545 1545 1545 1545 1545 1545 1545 1545 1545 1545 1546 1546 1546 1546 1546 1545 1544 1544 1544 1543
1486 1488 1490 1492 1494 1496 1497 1499 1500 1501 1503 1504 1506 1507 1508 1510 1511 1512 1513 1515 1516 1517 1518 1519 1520 1521 1523 1523 1524 1525 1526 1527 1528 1528 1529 1529 1530 1531 1531 1532 1532 1533 1534 1534 1534 1535 1535 1535 1535 1535 1536 1536 1537 1538 1538 1539 1539 1540 1540 1541 1542 1544 1544 1545 1546 1546 1546 1546 1546 1545 1545 1546 1546 1546 1546 1547 1547 1547 1547 1547 1546 1545 1545 1545 1545
1486 1488 1490 1492 1494 1496 1498 1499 1500 1502 1503 1505 1506 1507 1509 1510 1511 1512 1513 1515 1516 1518 1519 1520 1521 1522 1523 1524 1525 1526 1527 1528 1528 1529 1529 1530 1530 1531 1532 1532 1533 1534 1534 1535 1535 1536 1536 1535 1535 1536 1536 1536 1537 1538 1539 1539 1539 1540 1541 1542 1543 1544 1545 1546 1546 1547 1547 1547 1547 1546 1546 1546 1547 1547 1547 1548 1548 1548 1548 1547 1547 1547 1546 1546 1546
1486 1487 1490 1492 1494 1496 1498 1499 1501 1502 1504 1505 1506 1508 1509 1510 1511 1512 1514 1515 1517 1518 1519 1520 1521 1523 1524 1525 1526 1527 1528 1528 1529 1529 1530 1531 1531 1532 1532 1533 1534 1534 1535 1535 1536 1536 1536 1536 1536 1536 1536 1537 1537 1538 1539 1539 1540 1541 1541 1543 1544 1545 1545 1547 1547 1548 1549 1549 1549 1548 1547 1547 1548 1548 1548 1548 1549 1549 1549 1549 1548 1548 1547 1547 1547
1485 1487 1490 1492 1494 1496 1498 1500 1501 1503 1504 1506 1507 1508 1509 1511 1512 1513 1514 1516 1517 1518 1520 1521 1522 1523 1524 1525 1526 1527 1528 1529 1530 1530 1531 1532 1532 1533 1533 1534 1534 1535 1535 1536 1536 1536 1537 1537 1537 1537 1537 1537 1538 1539 1539 1540 1540 1541 1542 1543 1544 1545 1546 1547 1548 1550 1550 1551 1551 1551 1549 1548 1549 1549 1549 1549 1550 1550 1550 1550 1549 1549 1549 1549 1549
1485 1488 1490 1492 1494 1496 1498 1500 1501 1503 1505 1506 1507 1509 1510 1511 1512 1513 1515 1516 1517 1518 1520 1521 1522 1524 1525 1526 1527 1528 1529 1529 1530 1531 1532 1532 1533 1533 1534 1534 1535 1535 1536 1536 1536 1537 1537 1537 1538 1538 1537 1538 1538 1538 1539 1540 1541 1541 1543 1544 1545 1546 1547 1548 1549 1551 1551 1553 1554 1553 1552 1549 1549 1549 1549 1549 1550 1551 1550 1551 1550 1550 1550 1550 1550
1486 1488 1490 1493 1494 1496 1498 1500 1501 1503 1505 1506 1508 1509 1510 1512 1513 1514 1515 1516 1518 1519 1520 1521 1523 1524 1525 1526 1527 1528 1529 1530 1531 1531 1532 1533 1534 1534 1534 1535 1535 1536 1536 1536 1537 1537 1537 1538 1538 1538 1538 1538 1538 1538 1539 1540 1541 1542 1543 1544 1545 1546 1547 1549 1550 1551 1552 1554 1555 1554 1552 1550 1548 1549 1550 1550 1552 1552 1551 1552 1551 1551 1551 1551 1551
1487 1488 1491 1492 1494 1496 1498 1500 1502 1503 1505 1507 1508 1510 1511 1512 1514 1515 1516 1517 1518 1519 1521 1522 1523 1524 1526 1527 1528 1529 1529 1530 1531 1532 1533 1533 1534 1534 1535 1535 1536 1536 1536 1537 1537 1538 1538 1538 1538 1538 1538 1538 1539 1539 1539 1540 1541 1542 1543 1544 1546 1547 1548 1549 1550 1552 1552 1554 1555 1555 1553 1550 1549 1551 1552 1553 1553 1552 1552 1553 1553 1552 1552 1552 1552
1488 1489 1491 1493 1495 1496 1499 1501 1502 1504 1505 1507 1509 1510 1512 1513 1514 1515 1516 1517 1519 1520 1521 1522 1524 1525 1526 1527 1528 1529 1530 1531 1532 1532 1533 1534 1534 1535 1535 1535 1536 1536 1537 1537 1537 1538 1538 1538 1538 1538 1538 1539 1539 1539 1540 1540 1541 1542 1543 1545 1546 1547 1548 1549 1551 1552 1552 1554 1555 1554 1553 1551 1551 1553 1554 1555 1553 1553 1553 1554 1554 1553 1553 1553 1553
1488 1489 1491 1493 1495 1497 1499 1501 1503 1505 1506 1508 1509 1511 1512 1513 1515 1516 1517 1518 1519 1521 1522 1523 1524 1525 1526 1528 1529 1529 1530 1531 1532 1533 1534 1534 1535 1535 1536 1536 1537 1537 1537 1537 1538 1538 1538 1538 1538 1538 1539 1539 1540 1540 1540 1540 1541 1542 1544 1545 1546 1548 1549 1550 1551 1551 1553 1555 1554 1552 1553 1553 1554 1555 1556 1555 1554 1554 1554 1555 1555 1554 1554 1553 1553
1488 1489 1491 1493 1495 1498 1500 1502 1503 1505 1506 1508 1509 1511 1512 1514 1515 1516 1518 1519 1520 1521 1523 1524 1525 1526 1527 1528 1529 1530 1531 1532 1533 1533 1534 1535 1536 1536 1536 1537 1537 1537 1538 1538 1538 1538 1538 1538 1538 1538 1539 1539 1540 1540 1540 1541 1542 1542 1544 1546 1547 1548 1549 1550 1551 1551 1554 1556 1554 1552 1553 1553 1555 1555 1556 1556 1554 1555 1555 1555 1555 1555 1555 1554 1554
1488 1490 1492 1493 1495 1498 1500 1502 1504 1506 1507 1508 1510 1511 1513 1514 1516 1517 1519 1520 1521 1522 1523 1525 1525 1526 1527 1528 1529 1530 1531 1532 1533 1533 1534 1535 1536 1536 1537 1537 1537 1538 1538 1538 1539 1538 1539 1539 1539 1539 1539 1539 1540 1540 1540 1541 1542 1543 1544 1546 1547 1548 1549 1550 1550 1552 1554 1556 1553 1551 1553 1554 1555 1556 1556 1556 1555 1555 1555 1556 1556 1555 1555 1555 1555
1489 1490 1492 1494 1496 1498 1500 1502 1504 1506 1507 1509 1510 1512 1513 1514 1516 1517 1519 1520 1522 1523 1524 1525 1526 1527 1528 1529 1530 1531 1532 1532 1533 1534 1534 1535 1536 1537 1537 1538 1538 1538 1539 1539 1539 1539 1539 1539 1539 1539 1539 1540 1540 1540 1541 1541 1542 1543 1544 1546 1547 1549 1550 1550 1550 1552 1554 1555 1553 1552 1554 1554 1555 1556 1556 1555 1555 1555 1556 1556 1556 1556 1556 1555 1555
1490 1491 1493 1495 1496 1498 1500 1502 1504 1506 1508 1510 1511 1512 1513 1515 1516 1518 1519 1521 1522 1523 1524 1525 1526 1527 1528 1529 1530 1531 1532 1533 1533 1534 1535 1535 1536 1537 1537 1538 1538 1539 1539 1539 1539 1540 1540 1540 1540 1540 1540 1540 1540 1541 1541 1542 1542 1543 1544 1546 1548 1549 1550 1550 1551 1552 1554 1556 1553 1552 1554 1555 1555 1555 1555 1555 1555 1555 1556 1556 1556 1556 1556 1556 1556
1490 1492 1493 1495 1497 1498 1500 1502 1504 1507 1508 1510 1511 1513 1514 1515 1517 1518 1520 1521 1522 1524 1525 1526 1527 1528 1529 1530 1531 1532 1532 1533 1534 1534 1535 1536 1536 1537 1537 1538 1538 1539 1539 1540 1540 1540 1540 1541 1540 1541 1540 1540 1541 1541 1541 1542 1542 1543 1545 1546 1548 1550 1550 1551 1552 1552 1554 1556 1553 1552 1553 1554 1555 1555 1555 1555 1555 1555 1556 1556 1557 1557 1557 1557 1557
1490 1492 1493 1495 1497 1499 1501 1503 1505 1507 1509 1510 1512 1513 1514 1516 1517 1518 1520 1521 1523 1524 1525 1526 1527 1528 1529 1530 1531 1532 1533 1533 1534 1535 1535 1536 1536 1537 1537 1538 1539 1539 1540 1540 1540 1540 1541 1541 1541 1541 1541 1541 1541 1541 1542 1543 1543 1544 1545 1546 1548 1550 1551 1552 1552 1553 1555 1554 1552 1552 1554 1554 1554 1555 1556 1555 1555 1555 1556 1556 1557 1557 1557 1557 1557
1491 1492 1494 1496 1498 1499 1501 1504 1506 1508 1510 1511 1512 1513 1514 1516 1517 1518 1520 1521 1523 1524 1525 1526 1527 1528 1529 1530 1531 1532 1533 1534 1534 1535 1536 1536 1536 1537 1537 1538 1539 1539 1540 1540 1540 1541 1541 1541 1541 1541 1542 1542 1542 1542 1543 1543 1544 1544 1546 1547 1549 1550 1551 1552 1552 1554 1554 1553 1553 1553 1554 1554 1554 1555 1556 1555 1555 1556 1556 1556 1557 1557 1558 1557 1557
1492 1493 1494 1497 1499 1501 1502 1505 1507 1508 1510 1511 1513 1513 1515 1516 1517 1518 1520 1522 1523 1524 1526 1527 1528 1529 1529 1530 1531 1532 1533 1534 1535 1535 1536 1536 1536 1537 1537 1538 1538 1539 1540 1541 1541 1541 1541 1541 1541 1542 1542 1542 1543 1543 1543 1544 1544 1545 1546 1547 1549 1549 1550 1551 1552 1554 1553 1553 1554 1554 1554 1554 1555 1555 1556 1556 1555 1556 1556 1556 1557 1557 1558 1558 1558
1494 1494 1495 1497 1499 1502 1503 1505 1507 1508 1510 1511 1513 1513 1514 1516 1517 1519 1520 1521 1523 1525 1526 1527 1528 1529 1530 1530 1531 1532 1532 1534 1535 1535 1535 1536 1536 1536 1537 1538 1538 1539 1540 1540 1541 1541 1541 1541 1541 1542 1542 1542 1543 1544 1544 1544 1545 1545 1546 1547 1548 1549 1550 1551 1553 1554 1552 1553 1555 1555 1555 1555 1555 1555 1556 1556 1556 1556 1556 1556 1557 1558 1558 1559 1558
1497 1496 1497 1498 1500 1502 1504 1506 1507 1508 1510 1511 1512 1512 1514 1515 1517 1518 1520 1521 1523 1525 1525 1527 1528 1528 1529 1530 1531 1532 1532 1534 1534 1535 1535 1535 1536 1536 1537 1537 1538 1538 1539 1540 1540 1541 1541 1541 1541 1542 1542 1542 1543 1544 1544 1545 1545 1546 1546 1547 1548 1549 1550 1551 1553 1554 1552 1553 1554 1555 1555 1555 1554 1555 1555 1556 1556 1556 1556 1557 1557 1558 1559 1559 1559
1498 1498 1498 1499 1500 1502 1505 1506 1507 1508 1509 1510 1511 1512 1514 1515 1517 1518 1519 1521 1522 1524 1525 1526 1527 1528 1528 1529 1530 1531 1532 1534 1534 1535 1535 1535 1536 1536 1537 1537 1537 1538 1538 1539 1539 1540 1541 1541 1541 1542 1542 1542 1542 1543 1545 1545 1546 1546 1547 1547 1548 1548 1549 1551 1553 1553 1552 1553 1554 1554 1555 1554 1554 1554 1555 1555 1555 1556 1556 1557 1557 1558 1559 1559 1560
1498 1498 1499 1500 1501 1503 1505 1507 1507 1508 1509 1510 1512 1513 1514 1515 1517 1518 1519 1520 1522 1523 1524 1525 1526 1526 1527 1528 1529 1531 1532 1533 1534 1535 1535 1536 1536 1536 1537 1537 1537 1537 1538 1538 1539 1539 1540 1541 1541 1541 1542 1542 1543 1543 1544 1545 1546 1547 1547 1548 1548 1548 1549 1551 1552 1552 1552 1553 1554 1554 1554 1554 1554 1554 1555 1555 1555 1556 1556 1557 1557 1558 1558 1559 1560
1496 1498 1500 1500 1501 1503 1505 1507 1508 1509 1510 1511 1512 1513 1514 1516 1517 1518 1519 1520 1521 1523 1524 1525 1526 1526 1527 1529 1530 1530 1532 1533 1534 1535 1535 1535 1536 1537 1537 1537 1537 1537 1538 1538 1539 1539 1539 1540 1540 1541 1541 1542 1542 1543 1544 1545 1546 1547 1548 1548 1548 1548 1549 1550 1552 1551 1551 1552 1553 1554 1554 1554 1554 1554 1555 1555 1555 1555 1556 1556 1557 1557 1558 1559 1559
1495 1497 1499 1500 1501 1503 1504 1507 1509 1510 1511 1511 1512 1513 1515 1516 1517 1518 1518 1519 1520 1522 1523 1524 1525 1526 1527 1528 1530 1530 1532 1533 1534 1534 1535 1535 1536 1536 1537 1537 1537 1538 1538 1538 1539 1539 1539 1539 1540 1540 1541 1542 1542 1543 1544 1545 1546 1547 1548 1548 1549 1549 1549 1550 1551 1551 1551 1552 1552 1553 1553 1553 1554 1554 1554 1555 1555 1555 1556 1556 1556 1557 1558 1558 1559
1495 1497 1498 1499 1500 1502 1504 1507 1508 1510 1511 1512 1512 1513 1514 1515 1516 1517 1518 1519 1520 1521 1523 1524 1525 1526 1526 1527 1529 1530 1532 1533 1534 1534 1535 1535 1536 1535 1536 1538 1538 1538 1538 1538 1539 1539 1539 1539 1539 1540 1540 1541 1542 1543 1544 1545 1546 1546 1548 1549 1549 1550 1549 1550 1551 1550 1550 1551 1551 1552 1553 1553 1554 1554 1554 1555 1555 1555 1555 1556 1556 1557 1557 1558 1559
1495 1496 1498 1499 1500 1501 1504 1507 1508 1510 1511 1511 1512 1513 1513 1514 1515 1516 1517 1518 1519 1521 1522 1523 1524 1525 1526 1526 1528 1530 1531 1532 1534 1535 1535 1536 1536 1535 1536 1537 1537 1538 1538 1538 1538 1539 1539 1539 1539 1540 1540 1541 1542 1543 1544 1545 1546 1546 1547 1548 1549 1550 1549 1550 1551 1550 1550 1551 1551 1552 1552 1553 1553 1554 1554 1555 1555 1555 1555 1556 1556 1556 1557 1557 1558
1495 1496 1498 1500 1501 1502 1503 1506 1508 1509 1510 1511 1512 1512 1513 1514 1515 1516 1517 1518 1518 1520 1521 1522 1524 1525 1525 1525 1527 1529 1529 1530 1532 1534 1535 1537 1538 1536 1536 1537 1537 1537 1538 1538 1538 1539 1539 1539 1540 1540 1540 1541 1542 1543 1544 1545 1545 1546 1546 1548 1549 1550 1550 1550 1550 1551 1550 1550 1551 1552 1552 1553 1553 1554 1554 1555 1555 1555 1555 1556 1556 1556 1556 1557 1557
1495 1496 1498 1500 1501 1504 1504 1506 1508 1509 1511 1512 1512 1513 1513 1513 1515 1516 1517 1518 1518 1519 1521 1523 1524 1525 1525 1525 1526 1527 1528 1529 1530 1532 1534 1535 1536 1536 1536 1537 1537 1537 1537 1538 1538 1539 1539 1540 1540 1540 1541 1542 1542 1543 1544 1545 1545 1546 1546 1547 1548 1549 1550 1550 1550 1551 1550 1550 1551 1552 1552 1552 1553 1553 1554 1554 1555 1555 1556 1556 1556 1556 1556 1556 1557
1495 1496 1498 1500 1501 1504 1506 1507 1509 1510 1511 1511 1512 1514 1514 1515 1516 1516 1517 1517 1519 1520 1521 1523 1524 1525 1524 1524 1525 1527 1528 1528 1529 1531 1532 1533 1534 1535 1536 1535 1535 1536 1536 1537 1538 1538 1539 1540 1540 1541 1542 1542 1543 1544 1544 1545 1545 1546 1547 1548 1548 1549 1550 1550 1550 1551 1551 1550 1551 1552 1552 1552 1553 1553 1554 1554 1555 1555 1556 1556 1556 1556 1556 1556 1557
1495 1496 1498 1500 1502 1504 1505 1506 1509 1510 1511 1511 1511 1512 1513 1514 1515 1516 1517 1517 1518 1519 1520 1521 1523 1524 1524 1524 1524 1526 1527 1527 1529 1531 1532 1533 1534 1535 1536 1535 1535 1536 1536 1537 1537 1538 1539 1540 1541 1542 1542 1543 1544 1545 1545 1545 1545 1546 1547 1548 1549 1550 1550 1551 1551 1551 1552 1551 1551 1552 1552 1552 1553 1553 1553 1554 1554 1555 1555 1556 1556 1557 1557 1557 1557
1495 1497 1498 1500 1501 1502 1503 1505 1508 1510 1511 1511 1512 1513 1513 1514 1514 1515 1516 1517 1517 1518 1518 1519 1521 1523 1524 1524 1525 1526 1527 1528 1530 1532 1533 1534 1534 1535 1536 1536 1536 1536 1536 1537 1537 1538 1539 1540 1541 1542 1543 1544 1544 1545 1545 1546 1546 1546 1547 1548 1549 1550 1550 1551 1551 1552 1552 1551 1551 1551 1552 1552 1552 1553 1553 1553 1554 1554 1555 1556 1556 1556 1557 1557 1557
1496 1497 1499 1500 1500 1501 1503 1505 1507 1509 1509 1511 1512 1512 1513 1515 1515 1514 1515 1516 1517 1518 1519 1519 1521 1522 1524 1525 1525 1526 1528 1529 1530 1532 1533 1534 1535 1535 1535 1536 1536 1536 1536 1537 1537 1538 1540 1540 1542 1542 1543 1543 1544 1544 1544 1545 1545 1545 1546 1546 1547 1548 1548 1549 1550 1551 1552 1552 1552 1551 1552 1552 1552 1552 1552 1553 1553 1554 1554 1555 1555 1556 1556 1556 1557
1496 1497 1499 1500 1500 1502 1504 1505 1506 1508 1509 1510 1511 1512 1513 1514 1516 1515 1516 1517 1516 1518 1519 1521 1522 1523 1524 1525 1526 1527 1527 1529 1530 1531 1532 1533 1534 1534 1534 1534 1535 1535 1536 1536 1537 1538 1539 1540 1541 1542 1543 1543 1543 1544 1544 1544 1544 1544 1545 1546 1546 1547 1547 1548 1548 1549 1551 1552 1552 1552 1552 1551 1552 1552 1552 1552 1553 1553 1554 1554 1555 1555 1556 1556 1556
1497 1497 1498 1499 1501 1502 1504 1504 1506 1507 1508 1509 1510 1511 1512 1514 1515 1516 1517 1518 1517 1518 1518 1520 1521 1522 1523 1524 1525 1526 1527 1528 1529 1531 1531 1532 1532 1532 1532 1533 1533 1534 1534 1535 1536 1537 1539 1540 1541 1542 1543 1543 1543 1543 1543 1543 1544 1544 1544 1545 1546 1547 1547 1547 1547 1548 1549 1550 1552 1552 1552 1552 1551 1551 1552 1552 1552 1553 1553 1554 1554 1555 1555 1555 1556
1497 1497 1498 1499 1501 1502 1504 1505 1505 1506 1507 1509 1510 1511 1512 1513 1515 1516 1517 1518 1518 1519 1519 1519 1520 1520 1521 1522 1523 1524 1526 1527 1528 1529 1530 1530 1531 1531 1531 1531 1531 1531 1532 1533 1534 1536 1537 1538 1540 1541 1542 1543 1543 1543 1543 1543 1543 1544 1544 1545 1546 1547 1547 1547 1547 1548 1548 1549 1550 1551 1552 1552 1552 1551 1551 1551 1552 1552 1552 1553 1553 1554 1554 1555 1555
1497 1497 1498 1499 1501 1502 1503 1504 1505 1506 1507 1509 1510 1511 1512 1513 1514 1515 1517 1517 1518 1519 1519 1519 1519 1520 1520 1521 1522 1523 1524 1526 1527 1527 1528 1528 1529 1529 1528 1529 1529 1529 1530 1532 1533 1535 1535 1537 1539 1541 1542 1542 1542 1543 1543 1543 1543 1543 1544 1544 1545 1546 1547 1547 1547 1547 1548 1548 1549 1550 1551 1552 1552 1552 1551 1551 1551 1551 1552 1552 1553 1553 1553 1554 1554
1497 1498 1498 1499 1501 1502 1503 1504 1505 1506 1507 1509 1510 1510 1512 1513 1514 1515 1516 1517 1518 1518 1519 1518 1518 1519 1519 1520 1521 1522 1523 1524 1525 1525 1526 1526 1527 1527 1527 1527 1528 1528 1529 1530 1532 1533 1534 1536 1538 1539 1539 1540 1541 1542 1543 1543 1543 1543 1543 1543 1544 1545 1546 1546 1547 1547 1547 1547 1548 1548 1549 1550 1551 1552 1552 1551 1551 1551 1551 1552 1552 1552 1553 1553 1553
1497 1497 1499 1500 1501 1502 1503 1504 1505 1506 1507 1508 1509 1511 1512 1513 1514 1515 1516 1516 1517 1517 1518 1518 1518 1518 1519 1520 1520 1521 1522 1523 1523 1524 1524 1525 1525 1525 1525 1526 1526 1527 1528 1530 1531 1532 1533 1536 1536 1536 1537 1538 1540 1541 1541 1542 1543 1542 1542 1542 1543 1544 1545 1545 1546 1546 1545 1546 1546 1546 1546 1547 1548 1550 1551 1552 1552 1551 1551 1551 1551 1551 1552 1552 1553
1497 1498 1499 1501 1502 1503 1503 1504 1505 1506 1507 1508 1509 1511 1512 1513 1514 1515 1515 1516 1516 1516 1516 1517 1517 1517 1518 1519 1519 1520 1521 1522 1522 1523 1523 1524 1524 1524 1524 1525 1525 1526 1527 1529 1530 1531 1533 1534 1534 1535 1536 1537 1538 1539 1540 1541 1541 1541 1541 1541 1542 1543 1544 1544 1544 1544 1544 1544 1544 1544 1545 1546 1547 1548 1548 1549 1550 1551 1551 1551 1551 1551 1551 1551 1552
1497 1498 1500 1502 1503 1503 1503 1503 1504 1505 1506 1507 1509 1511 1512 1513 1514 1515 1515 1515 1516 1516 1516 1516 1517 1517 1518 1518 1519 1519 1520 1521 1521 1522 1523 1523 1523 1524 1524 1524 1524 1525 1527 1528 1529 1530 1531 1532 1533 1534 1535 1536 1537 1538 1539 1539 1539 1539 1539 1540 1542 1542 1543 1543 1542 1542 1542 1542 1542 1542 1544 1545 1545 1546 1546 1546 1546 1548 1550 1550 1550 1550 1550 1550 1551
1497 1499 1501 1503 1503 1502 1502 1503 1504 1504 1505 1507 1508 1510 1511 1512 1513 1514 1514 1515 1515 1515 1515 1516 1516 1517 1517 1518 1518 1519 1519 1520 1521 1521 1522 1522 1523 1523 1523 1523 1524 1525 1526 1527 1528 1530 1530 1531 1532 1533 1533 1534 1536 1537 1537 1538 1539 1539 1539 1540 1542 1542 1542 1542 1541 1540 1540 1541 1541 1541 1542 1543 1544 1545 1545 1545 1545 1545 1547 1548 1548 1548 1548 1549 1549
1495 1497 1501 1502 1502 1501 1501 1502 1503 1504 1504 1506 1507 1508 1509 1511 1512 1513 1513 1514 1515 1515 1516 1516 1517 1517 1517 1518 1518 1518 1519 1519 1520 1521 1521 1521 1522 1523 1523 1524 1524 1525 1527 1528 1528 1529 1530 1530 1531 1532 1532 1533 1535 1535 1536 1537 1538 1538 1539 1540 1542 1542 1542 1541 1540 1539 1539 1539 1540 1540 1540 1542 1543 1544 1544 1544 1544 1544 1544 1545 1546 1546 1547 1548 1548
1492 1496 1498 1500 1500 1499 1500 1500 1501 1503 1504 1505 1506 1507 1508 1510 1511 1512 1513 1514 1515 1516 1516 1517 1517 1518 1518 1518 1518 1518 1519 1519 1520 1520 1520 1521 1522 1523 1523 1524 1525 1526 1527 1528 1529 1529 1530 1530 1530 1531 1532 1533 1534 1535 1535 1536 1537 1538 1539 1540 1541 1542 1542 1541 1540 1540 1539 1539 1539 1539 1539 1540 1542 1542 1543 1543 1543 1543 1543 1544 1545 1546 1546 1547 1547
1491 1495 1497 1497 1497 1497 1498 1499 1500 1501 1503 1504 1505 1507 1508 1509 1510 1512 1513 1513 1514 1516 1517 1517 1518 1518 1518 1518 1519 1519 1519 1519 1520 1520 1521 1521 1522 1523 1524 1524 1525 1526 1527 1528 1529 1529 1529 1530 1530 1531 1531 1531 1532 1534 1535 1535 1536 1537 1538 1539 1540 1541 1541 1541 1541 1540 1539 1539 1538 1538 1539 1540 1540 1541 1542 1542 1542 1543 1543 1544 1544 1545 1545 1546 1546
1490 1494 1495 1494 1494 1495 1496 1497 1499 1500 1502 1504 1505 1506 1507 1508 1510 1511 1513 1514 1514 1515 1517 1518 1518 1519 1519 1519 1519 1519 1519 1520 1520 1520 1521 1521 1522 1522 1523 1524 1525 1526 1527 1527 1528 1528 1529 1529 1530 1530 1531 1531 1532 1533 1534 1535 1536 1537 1537 1538 1539 1540 1540 1541 1540 1540 1539 1538 1538 1538 1539 1539 1540 1540 1541 1541 1541 1542 1543 1543 1543 1543 1544 1544 1545
1491 1494 1493 1491 1492 1493 1494 1496 1497 1499 1501 1503 1504 1506 1506 1507 1509 1511 1513 1514 1515 1515 1516 1518 1518 1519 1519 1519 1520 1520 1520 1520 1520 1521 1521 1521 1521 1522 1523 1524 1525 1526 1526 1526 1527 1528 1528 1529 1530 1530 1531 1531 1532 1533 1534 1535 1536 1536 1536 1537 1539 1539 1539 1540 1540 1539 1539 1538 1537 1537 1538 1539 1539 1539 1539 1540 1540 1540 1542 1542 1542 1542 1543 1544 1544
1492 1492 1491 1490 1490 1491 1492 1494 1496 1498 1500 1502 1504 1505 1506 1507 1508 1510 1513 1514 1515 1516 1516 1517 1518 1519 1519 1520 1520 1520 1521 1521 1521 1521 1521 1521 1522 1522 1523 1524 1525 1525 1525 1526 1527 1527 1528 1528 1529 1530 1531 1531 1532 1533 1534 1535 1536 1536 1536 1537 1538 1538 1539 1539 1539 1539 1538 1538 1537 1537 1537 1538 1538 1538 1538 1539 1539 1539 1540 1541 1542 1543 1543 1543 1542
1489 1488 1488 1488 1489 1489 1491 1492 1494 1496 1498 1500 1502 1504 1505 1506 1507 1510 1512 1513 1514 1515 1516 1517 1519 1519 1520 1520 1521 1521 1521 1521 1522 1522 1522 1522 1522 1523 1524 1524 1525 1525 1526 1526 1527 1527 1528 1528 1529 1529 1530 1531 1532 1532 1533 1534 1535 1535 1536 1537 1537 1537 1538 1538 1538 1538 1538 1537 1537 1537 1537 1538 1538 1538 1538 1537 1538 1538 1539 1540 1541 1541 1542 1542 1542
1484 1484 1485 1486 1487 1488 1489 1490 1492 1494 1497 1499 1501 1502 1504 1505 1506 1508 1510 1512 1513 1515 1516 1517 1518 1519 1520 1521 1521 1522 1522 1522 1523 1523 1523 1523 1524 1524 1524 1525 1526 1526 1526 1527 1527 1528 1528 1529 1529 1530 1530 1531 1531 1532 1533 1534 1534 1535 1536 1536 1536 1537 1537 1537 1537 1537 1537 1537 1537 1537 1537 1537 1537 1537 1537 1536 1536 1537 1538 1539 1539 1540 1540 1540 1540